Lapeer, MI

7:51 PM EDT on May 27, 2017 (GMT -0400)
Lapeer

Weather History for KD95 - December, 2012

Change the Weather History Date:

Friday, December 14, 2012

  Actual Average (KFNT) Record (KFNT)
Temperature  
Mean Temperature 37 °F -  
Max Temperature 44 °F 34 °F 63 °F (1975)
Min Temperature 30 °F 22 °F 0 °F (1944)
Degree Days  
Heating Degree Days 28    
Moisture  
Dew Point 29 °F    
Average Humidity 76    
Maximum Humidity 100    
Minimum Humidity 56    
Precipitation  
Precipitation 0.00 in - - ()
Sea Level Pressure  
Sea Level Pressure 30.19 in    
Wind  
Wind Speed 5 mph (WSW)    
Max Wind Speed 10 mph    
Max Gust Speed -    
Visibility 9 miles    
Events      
Averages and records for this station are not official NWS values.
T = Trace of Precipitation, MM = Missing Value Source: NWS Daily Summary

Daily Weather History Graph

Daily Weather History Graph

Search for Another Location

Airport or City:

Trip Planner

Search our weather history database for the weather conditions in past years. The results will help you decide how hot, cold, wet, or windy it might be!

Date:

Astronomy

Dec. 14, 2012 Rise Set
Actual Time 7:57 AM EST 4:58 PM EST
Civil Twilight 7:24 AM EST 5:31 PM EST
Nautical Twilight 6:49 AM EST 6:07 PM EST
Astronomical Twilight 6:14 AM EST 6:41 PM EST
Moon 8:59 AM EST (12/14) 6:51 PM EST (12/14)
Length of Visible Light 10h 06m
Length of Day
9h 01m
Waxing Crescent, 3% of the Moon is Illuminated
Dec 14
Waxing Crescent
Dec 20
First Quarter
Dec 28
Full
Jan 4
Last Quarter
Jan 11
New

Hourly Weather History & Observations

Time (EST) Temp. Windchill Dew Point Humidity Pressure Visibility Wind Dir Wind Speed Gust Speed Precip Events Conditions
12:13 AM 37.4 °F 30.3 °F 25.5 °F 62% 30.14 in 10.0 mi SW 10.4 mph - N/A   Clear
12:32 AM 37.0 °F 31.0 °F 25.7 °F 64% 30.15 in 10.0 mi SW 8.1 mph - N/A   Clear
1:13 AM 36.3 °F 30.1 °F 25.7 °F 65% 30.14 in 10.0 mi SSW 8.1 mph - N/A   Clear
1:32 AM 36.0 °F 29.0 °F 25.9 °F 67% 30.14 in 10.0 mi SW 9.2 mph - N/A   Clear
1:53 AM 35.8 °F 30.1 °F 25.9 °F 67% 30.14 in 10.0 mi WSW 6.9 mph - N/A   Clear
2:13 AM 35.4 °F 30.5 °F 25.9 °F 68% 30.15 in 10.0 mi SW 5.8 mph - N/A   Clear
2:32 AM 35.1 °F 30.1 °F 26.1 °F 70% 30.15 in 10.0 mi SW 5.8 mph - N/A   Clear
2:53 AM 34.7 °F 30.6 °F 26.1 °F 71% 30.15 in 10.0 mi SW 4.6 mph - N/A   Clear
3:13 AM 34.9 °F 29.0 °F 26.2 °F 71% 30.15 in 10.0 mi SW 6.9 mph - N/A   Clear
3:32 AM 35.1 °F 31.0 °F 26.4 °F 71% 30.15 in 10.0 mi WSW 4.6 mph - N/A   Clear
3:53 AM 34.7 °F 30.6 °F 26.6 °F 72% 30.16 in 10.0 mi WSW 4.6 mph - N/A   Clear
4:13 AM 34.9 °F 30.8 °F 27.0 °F 73% 30.16 in 10.0 mi WSW 4.6 mph - N/A   Clear
4:33 AM 34.9 °F 28.3 °F 27.1 °F 73% 30.16 in 10.0 mi WSW 8.1 mph - N/A   Clear
4:53 AM 35.1 °F 30.1 °F 27.5 °F 74% 30.16 in 10.0 mi WSW 5.8 mph - N/A   Clear
5:13 AM 35.1 °F 29.3 °F 27.5 °F 74% 30.16 in 10.0 mi WSW 6.9 mph - N/A   Clear
5:53 AM 35.1 °F 30.1 °F 28.0 °F 76% 30.17 in 10.0 mi WSW 5.8 mph - N/A   Clear
6:13 AM 34.2 °F 31.2 °F 27.5 °F 77% 30.17 in 10.0 mi WSW 3.5 mph - N/A   Clear
6:33 AM 33.8 °F 29.6 °F 27.5 °F 78% 30.17 in 10.0 mi WSW 4.6 mph - N/A   Clear
6:53 AM 33.3 °F - 27.5 °F 79% 30.18 in 10.0 mi Calm Calm - N/A   Clear
7:13 AM 32.9 °F 29.8 °F 27.3 °F 80% 30.18 in 10.0 mi WSW 3.5 mph - N/A   Clear
7:33 AM 32.4 °F 29.1 °F 27.3 °F 82% 30.19 in 10.0 mi WSW 3.5 mph - N/A   Clear
7:53 AM 32.0 °F 28.7 °F 27.0 °F 82% 30.19 in 10.0 mi SW 3.5 mph - N/A   Clear
8:13 AM 32.0 °F - 27.1 °F 82% 30.19 in 10.0 mi Calm Calm - N/A   Clear
8:33 AM 30.7 °F - 26.6 °F 85% 30.19 in 10.0 mi Calm Calm - N/A   Clear
8:53 AM 30.2 °F - 27.0 °F 88% 30.19 in 10.0 mi Calm Calm - N/A   Clear
9:13 AM 33.1 °F - 28.0 °F 82% 30.20 in 10.0 mi Calm Calm - N/A   Clear
9:33 AM 35.1 °F 32.2 °F 28.4 °F 77% 30.21 in 10.0 mi West 3.5 mph - N/A   Clear
9:53 AM 36.7 °F 34.1 °F 28.9 °F 74% 30.21 in 10.0 mi West 3.5 mph - N/A   Clear
10:13 AM 37.4 °F 33.8 °F 29.3 °F 73% 30.22 in 10.0 mi WSW 4.6 mph - N/A   Clear
10:33 AM 38.3 °F 34.8 °F 30.0 °F 72% 30.22 in 10.0 mi WNW 4.6 mph - N/A   Clear
10:53 AM 39.2 °F - 30.4 °F 71% 30.23 in 10.0 mi Calm Calm - N/A   Clear
11:13 AM 39.9 °F 37.8 °F 30.7 °F 70% 30.23 in 10.0 mi West 3.5 mph - N/A   Clear
11:33 AM 40.6 °F 38.6 °F 31.3 °F 69% 30.23 in 10.0 mi West 3.5 mph - N/A   Clear
11:53 AM 40.8 °F 38.8 °F 31.3 °F 69% 30.22 in 10.0 mi West 3.5 mph - N/A   Clear
12:13 PM 41.7 °F - 30.9 °F 66% 30.22 in 10.0 mi Calm Calm - N/A   Clear
12:33 PM 41.9 °F - 31.1 °F 66% 30.22 in 10.0 mi Calm Calm - N/A   Clear
12:53 PM 42.8 °F 41.1 °F 30.7 °F 62% 30.21 in 10.0 mi SSW 3.5 mph - N/A   Clear
1:13 PM 43.0 °F - 30.6 °F 62% 30.21 in 10.0 mi Calm Calm - N/A   Clear
1:33 PM 44.1 °F - 29.8 °F 57% 30.20 in 10.0 mi Calm Calm - N/A   Clear
1:53 PM 44.6 °F - 29.8 °F 56% 30.20 in 10.0 mi Calm Calm - N/A   Clear
2:13 PM 43.9 °F - 29.8 °F 58% 30.20 in 10.0 mi Calm Calm - N/A   Clear
2:33 PM 44.8 °F - 30.2 °F 57% 30.19 in 10.0 mi Calm Calm - N/A   Clear
2:53 PM 44.8 °F - 31.1 °F 59% 30.18 in 10.0 mi Calm Calm - N/A   Clear
3:13 PM 44.1 °F - 29.5 °F 57% 30.18 in 10.0 mi Calm Calm - N/A   Clear
3:33 PM 44.2 °F - 30.2 °F 58% 30.18 in 10.0 mi Calm Calm - N/A   Clear
3:53 PM 43.9 °F - 30.6 °F 59% 30.19 in 10.0 mi Calm Calm - N/A   Clear
4:13 PM 43.3 °F - 30.6 °F 61% 30.18 in 10.0 mi Calm Calm - N/A   Clear
4:33 PM 43.3 °F - 29.8 °F 59% 30.19 in 10.0 mi Calm Calm - N/A   Clear
5:13 PM 40.1 °F 36.1 °F 29.8 °F 67% 30.19 in 10.0 mi ENE 5.8 mph - N/A   Clear
5:33 PM 39.2 °F 35.9 °F 30.2 °F 70% 30.19 in 10.0 mi ENE 4.6 mph - N/A   Clear
5:53 PM 37.9 °F 34.4 °F 30.2 °F 74% 30.19 in 10.0 mi ENE 4.6 mph - N/A   Clear
6:13 PM 36.9 °F 34.3 °F 30.2 °F 77% 30.19 in 10.0 mi East 3.5 mph - N/A   Clear
6:33 PM 36.3 °F 31.6 °F 30.7 °F 80% 30.19 in 10.0 mi East 5.8 mph - N/A   Clear
6:53 PM 36.0 °F 32.1 °F 30.9 °F 82% 30.21 in 10.0 mi ESE 4.6 mph - N/A   Clear
7:13 PM 34.9 °F 32.0 °F 32.0 °F 89% 30.21 in 10.0 mi East 3.5 mph - N/A   Clear
7:33 PM 34.3 °F - 32.0 °F 91% 30.22 in 10.0 mi Calm Calm - N/A   Clear
7:53 PM 34.2 °F - 32.0 °F 92% 30.23 in 10.0 mi Calm Calm - N/A   Clear
8:13 PM 33.3 °F 30.2 °F 32.4 °F 96% 30.22 in 7.0 mi East 3.5 mph - N/A   Clear
8:33 PM 33.1 °F - 33.1 °F 100% 30.22 in 7.0 mi Calm Calm - N/A   Clear
8:53 PM 32.9 °F - 32.9 °F 100% 30.22 in 7.0 mi Calm Calm - N/A   Clear
9:13 PM 32.2 °F - 32.2 °F 100% 30.21 in 5.0 mi Calm Calm - N/A   Clear
9:33 PM 32.2 °F - 32.2 °F 100% 30.21 in 5.0 mi Calm Calm - N/A   Clear
9:53 PM 32.4 °F - 32.4 °F 100% 30.21 in 5.0 mi Calm Calm - N/A   Clear
10:13 PM 32.2 °F - 32.2 °F 100% 30.20 in 5.0 mi Calm Calm - N/A   Clear
10:33 PM 32.2 °F - 32.2 °F 100% 30.21 in 4.0 mi Calm Calm - N/A   Clear
10:53 PM 32.2 °F - 32.2 °F 100% 30.20 in 4.0 mi Calm Calm - N/A   Clear
11:13 PM 32.0 °F 28.7 °F 32.0 °F 100% 30.19 in 5.0 mi East 3.5 mph - N/A   Clear
11:33 PM 32.0 °F - 32.0 °F 100% 30.18 in 4.0 mi Calm Calm - N/A   Clear
11:53 PM 32.0 °F - 32.0 °F 100% 30.19 in 4.0 mi Calm Calm - N/A   Clear